Regional Weather Roundup
Issued by NWS

Home | Current Version | Previous Version | Graphics & Text | Print | Product List | Glossary On
Versions: 1 2 3 4 5 6 7 8 9 10 11 12 13 14 15 16 17 18 19 20 21 22 23 24 25 26 27 28 29 30 31 32 33 34 35 36 37 38 39 40 41 42 43 44 45 46 47 48 49 50
000
ASUS43 KFSD 112310
RWRSD

WEATHER ROUNDUP FOR SOUTH DAKOTA
NATIONAL WEATHER SERVICE SIOUX FALLS SD
500 PM CST MON DEC 11 2017

NOTE: "FAIR" INDICATES FEW OR NO CLOUDS BELOW 12,000 FEET WITH NO
SIGNIFICANT WEATHER AND/OR OBSTRUCTIONS TO VISIBILITY.


SDZ001>005-009-010-012>017-120000-
NORTHWEST AND NORTH CENTRAL SOUTH DAKOTA

CITY           SKY/WX    TMP DP  RH WIND       PRES   REMARKS
BUFFALO          N/A     37  26  64 NW17      30.30R
FAITH            N/A     37  30  75 NW21      30.32R
MOBRIDGE       MOCLDY    37  26  64 N15       30.28R
$$

SDZ012>016-024>037-041>051-057-063-072>074-120000-
SOUTHWEST AND SOUTH CENTRAL SOUTH DAKOTA

CITY           SKY/WX    TMP DP  RH WIND       PRES   REMARKS
RAPID CTY ARPT CLEAR     39  22  50 N24G35    30.34R
PIERRE         CLOUDY    37  31  78 NW17      30.31R
CUSTER         CLEAR     36  -4  18 NW8G25    30.31R
ELLSWORTH AFB  CLEAR     40  22  48 N22G31    30.34R
PHILIP         CLOUDY    41  29  62 N18       30.34R
PINE RIDGE     CLEAR     40  24  53 N10G21    30.35R
SPEARFISH      FAIR      36  19  51 W13       30.36S
WINNER         CLOUDY    39  31  72 N18G28    30.31R
$$

SDZ004>011-016>023-039-040-120000-
NORTHEAST SOUTH DAKOTA

CITY           SKY/WX    TMP DP  RH WIND       PRES   REMARKS
ABERDEEN       CLEAR     24  16  71 N16       30.33R WCI  11
WATERTOWN      CLEAR     20  15  81 N22       30.21R WCI   3
BROOKINGS      MOCLDY    25  19  78 N20G25    30.19R WCI  11
SISSETON         N/A     21  14  74 N20       30.27R WCI   6
$$

SDZ017-020-022-023-036>040-048>070-120000-
SOUTHEAST SOUTH DAKOTA

CITY           SKY/WX    TMP DP  RH WIND       PRES   REMARKS
SIOUX FALLS    PTCLDY    31  24  75 N18       30.18R WCI  19
HURON          CLEAR     28  20  71 N15       30.28R WCI  16
CHAMBERLAIN    CLOUDY    39  30  69 NW15G23   30.29R
MITCHELL       CLEAR     32  25  75 N16       30.26R WCI  21
YANKTON        CLEAR     34  27  75 NW21      30.22R WCI  22
$$

ABBREVIATIONS USED IN REMARKS
   TC - TEMPERATURE IN CELSIUS
  WCI - WIND CHILL INDEX
   HX - HEAT INDEX
  VSB - VISIBILITY





USA.gov is the U.S. government's official web portal to all federal, state and local government web resources and services.